• In Uzbekistan
  • List of Countries
  • For 7 days
  • Water Temperature
  • Satellite Maps
  • Weather Map
  • Weather Widgets
  • user-avatar
    Login

    Hourly Weather Ioannina

    Today, 18 October, Wednesday

    Time Temperature Precipitation Wind Pressure Humidity
    00:00 +14°C° 0 mm 1 mps 692 mmHg 54%
    01:00 +14°C° 0 mm 1 mps 692 mmHg 53%
    02:00 +13°C° 0 mm 1 mps 691 mmHg 53%
    03:00 +13°C° 0 mm 1 mps 691 mmHg 52%
    04:00 +13°C° 0 mm 1 mps 691 mmHg 52%
    05:00 +13°C° 0 mm 1 mps 691 mmHg 51%
    06:00 +14°C° 0 mm 1 mps 691 mmHg 50%
    07:00 +15°C° 0 mm 1 mps 691 mmHg 48%
    08:00 +18°C° 0 mm 1 mps 691 mmHg 42%
    09:00 +21°C° 0 mm 1 mps 692 mmHg 36%
    10:00 +23°C° 0 mm 1 mps 692 mmHg 30%
    11:00 +23°C° 0 mm 1 mps 692 mmHg 29%
    12:00 +24°C° 0 mm 1 mps 692 mmHg 28%
    13:00 +24°C° 0 mm 2 mps 692 mmHg 27%
    14:00 +23°C° 0 mm 1 mps 691 mmHg 31%
    15:00 +22°C° 0 mm 1 mps 691 mmHg 35%
    16:00 +21°C° 0 mm 1 mps 690 mmHg 39%
    17:00 +20°C° 0 mm 1 mps 690 mmHg 43%
    18:00 +18°C° 0 mm 1 mps 690 mmHg 46%
    19:00 +14°C° 0 mm 0 mps 690 mmHg 50%
    20:00 +14°C° 0 mm 0 mps 690 mmHg 50%
    21:00 +14°C° 0 mm 1 mps 690 mmHg 50%
    22:00 +14°C° 0 mm 1 mps 690 mmHg 50%
    23:00 +14°C° 0 mm 1 mps 689 mmHg 50%

    Tomorrow, 19 October, Thursday

    Time Temperature Precipitation Wind Pressure Humidity
    00:00 +13°C° 0 mm 1 mps 689 mmHg 50%
    01:00 +13°C° 0 mm 1 mps 689 mmHg 50%
    02:00 +13°C° 0 mm 1 mps 689 mmHg 51%
    03:00 +13°C° 0 mm 1 mps 689 mmHg 51%
    04:00 +12°C° 0 mm 1 mps 688 mmHg 52%
    05:00 +13°C° 0 mm 1 mps 689 mmHg 51%
    06:00 +13°C° 0 mm 1 mps 689 mmHg 51%
    07:00 +14°C° 0 mm 1 mps 689 mmHg 51%
    08:00 +16°C° 0 mm 1 mps 690 mmHg 45%
    09:00 +20°C° 0 mm 1 mps 690 mmHg 39%
    10:00 +22°C° 0 mm 1 mps 691 mmHg 34%
    11:00 +23°C° 0 mm 1 mps 690 mmHg 33%
    12:00 +23°C° 0 mm 1 mps 690 mmHg 32%
    13:00 +23°C° 0 mm 2 mps 690 mmHg 32%
    14:00 +21°C° 0 mm 2 mps 690 mmHg 36%
    15:00 +20°C° 0 mm 2 mps 690 mmHg 41%
    16:00 +21°C° 0 mm 1 mps 689 mmHg 45%
    17:00 +19°C° 0 mm 1 mps 689 mmHg 53%
    18:00 +16°C° 0 mm 1 mps 689 mmHg 60%
    19:00 +13°C° 0 mm 0 mps 689 mmHg 68%
    20:00 +14°C° 0 mm 1 mps 689 mmHg 70%
    21:00 +13°C° 0 mm 1 mps 689 mmHg 72%
    22:00 +13°C° 0 mm 1 mps 689 mmHg 75%
    23:00 +13°C° 0 mm 1 mps 689 mmHg 76%

    Day after tomorrow, 20 October, Friday

    Time Temperature Precipitation Wind Pressure Humidity
    00:00 +12°C° 0 mm 1 mps 689 mmHg 77%
    01:00 +12°C° 0 mm 1 mps 689 mmHg 78%
    02:00 +12°C° 0 mm 1 mps 688 mmHg 78%
    03:00 +11°C° 0 mm 1 mps 688 mmHg 79%
    04:00 +11°C° 0 mm 1 mps 688 mmHg 79%
    05:00 +12°C° 0 mm 1 mps 688 mmHg 75%
    06:00 +12°C° 0 mm 1 mps 688 mmHg 72%
    07:00 +13°C° 0 mm 1 mps 689 mmHg 69%
    08:00 +15°C° 0 mm 1 mps 689 mmHg 59%
    09:00 +19°C° 0 mm 1 mps 690 mmHg 50%
    10:00 +21°C° 0 mm 1 mps 690 mmHg 40%
    11:00 +22°C° 0 mm 1 mps 690 mmHg 39%
    12:00 +22°C° 0 mm 1 mps 690 mmHg 37%
    13:00 +23°C° 0 mm 2 mps 690 mmHg 36%
    14:00 +22°C° 0 mm 1 mps 689 mmHg 41%
    15:00 +21°C° 0 mm 1 mps 689 mmHg 45%
    16:00 +20°C° 0 mm 1 mps 689 mmHg 50%
    17:00 +18°C° 0 mm 1 mps 689 mmHg 58%
    18:00 +16°C° 0 mm 1 mps 689 mmHg 67%
    19:00 +13°C° 0 mm 0 mps 689 mmHg 75%
    20:00 +13°C° 0 mm 1 mps 689 mmHg 78%
    21:00 +13°C° 0 mm 1 mps 689 mmHg 80%
    22:00 +13°C° 0 mm 1 mps 689 mmHg 83%
    23:00 +12°C° 0 mm 1 mps 689 mmHg 83%

    21 October, Saturday

    Time Temperature Precipitation Wind Pressure Humidity
    00:00 +12°C° 0 mm 1 mps 689 mmHg 82%
    01:00 +12°C° 0 mm 1 mps 689 mmHg 82%
    02:00 +12°C° 0 mm 1 mps 689 mmHg 81%
    03:00 +12°C° 0 mm 1 mps 688 mmHg 80%
    04:00 +11°C° 0 mm 1 mps 688 mmHg 79%
    05:00 +12°C° 0 mm 1 mps 688 mmHg 76%
    06:00 +12°C° 0 mm 1 mps 689 mmHg 72%
    07:00 +13°C° 0 mm 1 mps 689 mmHg 68%
    08:00 +15°C° 0 mm 1 mps 689 mmHg 59%
    09:00 +19°C° 0 mm 1 mps 690 mmHg 50%
    10:00 +21°C° 0 mm 1 mps 690 mmHg 41%
    11:00 +22°C° 0 mm 1 mps 690 mmHg 40%
    12:00 +22°C° 0 mm 1 mps 690 mmHg 39%
    13:00 +21°C° 0 mm 2 mps 690 mmHg 38%
    14:00 +21°C° 0 mm 2 mps 689 mmHg 42%
    15:00 +21°C° 0 mm 1 mps 689 mmHg 46%
    16:00 +20°C° 0 mm 1 mps 689 mmHg 50%
    17:00 +18°C° 0 mm 1 mps 689 mmHg 55%
    18:00 +16°C° 0 mm 1 mps 689 mmHg 60%
    19:00 +14°C° 0 mm 1 mps 689 mmHg 65%
    20:00 +14°C° 0 mm 1 mps 689 mmHg 65%
    21:00 +13°C° 0 mm 1 mps 689 mmHg 65%
    22:00 +13°C° 0 mm 1 mps 689 mmHg 65%
    23:00 +13°C° 0 mm 1 mps 689 mmHg 64%

    22 October, Sunday

    Time Temperature Precipitation Wind Pressure Humidity
    00:00 +12°C° 0 mm 1 mps 688 mmHg 64%
    01:00 +12°C° 0 mm 1 mps 688 mmHg 63%
    02:00 +12°C° 0 mm 1 mps 688 mmHg 63%
    03:00 +12°C° 0 mm 1 mps 688 mmHg 63%
    04:00 +11°C° 0 mm 1 mps 688 mmHg 64%
    05:00 +12°C° 0 mm 1 mps 688 mmHg 62%
    06:00 +12°C° 0 mm 1 mps 688 mmHg 61%
    07:00 +13°C° 0 mm 1 mps 688 mmHg 60%
    08:00 +15°C° 0 mm 1 mps 689 mmHg 52%
    09:00 +19°C° 0 mm 1 mps 689 mmHg 44%
    10:00 +21°C° 0 mm 1 mps 690 mmHg 37%
    11:00 +21°C° 0 mm 1 mps 689 mmHg 36%
    12:00 +21°C° 0 mm 2 mps 689 mmHg 36%
    13:00 +21°C° 0 mm 2 mps 688 mmHg 35%
    14:00 +20°C° 0 mm 2 mps 688 mmHg 39%
    15:00 +19°C° 0 mm 2 mps 688 mmHg 43%
    16:00 +18°C° 0 mm 2 mps 687 mmHg 48%
    17:00 +18°C° 0 mm 1 mps 687 mmHg 55%
    18:00 +15°C° 0 mm 1 mps 687 mmHg 62%
    19:00 +13°C° 0 mm 1 mps 687 mmHg 69%
    20:00 +13°C° 0 mm 1 mps 686 mmHg 72%
    21:00 +13°C° 0 mm 1 mps 686 mmHg 74%
    22:00 +13°C° 0 mm 1 mps 686 mmHg 76%
    23:00 +12°C° 0 mm 1 mps 686 mmHg 77%

    23 October, Monday

    Time Temperature Precipitation Wind Pressure Humidity
    00:00 +12°C° 0 mm 1 mps 685 mmHg 78%
    01:00 +12°C° 0 mm 1 mps 685 mmHg 79%
    02:00 +12°C° 0 mm 1 mps 685 mmHg 79%
    03:00 +12°C° 0 mm 2 mps 684 mmHg 78%
    04:00 +12°C° 0 mm 2 mps 684 mmHg 78%
    05:00 +12°C° 0.3 mm 2 mps 683 mmHg 77%
    06:00 +12°C° 0.3 mm 2 mps 683 mmHg 76%
    07:00 +11°C° 0.3 mm 3 mps 683 mmHg 75%
    08:00 +12°C° 0.9 mm 3 mps 683 mmHg 72%
    09:00 +13°C° 0.9 mm 3 mps 683 mmHg 69%
    10:00 +14°C° 0.9 mm 4 mps 683 mmHg 67%
    11:00 +13°C° 2.1 mm 4 mps 682 mmHg 71%
    12:00 +13°C° 2.1 mm 3 mps 681 mmHg 75%
    13:00 +12°C° 2.1 mm 3 mps 681 mmHg 80%
    14:00 +12°C° 2.8 mm 3 mps 680 mmHg 82%
    15:00 +13°C° 2.8 mm 2 mps 680 mmHg 83%
    16:00 +13°C° 2.8 mm 2 mps 680 mmHg 85%
    17:00 +12°C° 1.1 mm 2 mps 680 mmHg 86%
    18:00 +11°C° 1.1 mm 1 mps 679 mmHg 87%
    19:00 +11°C° 1.1 mm 1 mps 679 mmHg 89%
    20:00 +11°C° 0.6 mm 1 mps 679 mmHg 89%
    21:00 +10°C° 0.6 mm 1 mps 679 mmHg 90%
    22:00 +10°C° 0.6 mm 1 mps 679 mmHg 90%
    23:00 +10°C° 0.5 mm 1 mps 678 mmHg 90%
    Show more